Location: Eastchurch
(51.4000°N, 0.8667°E)
Time: 05:51:55
(UTC+00:00)

Cosmos 1953 - Pass Details

Date: 19 January 2026
Orbit: 474 x 489 km, 82.5° (Epoch: 18 February)

Event Time Altitude Azimuth Distance (km) Brightness Sun altitude
Rises 17:27:38 0° 345° (NNW) 2,588 5.7 -9.7°
Reaches altitude 10° 17:29:47 10° 341° (NNW) 1,701 4.8 -10.1°
Maximum altitude 17:33:24 51° 265° (W) 628 3.1 -10.6°
Drops below altitude 10° 17:36:59 10° 188° (S) 1,682 5.2 -11.1°
Sets 17:39:07 0° 184° (S) 2,557 6.0 -11.4°
